Time,TemperatureF,DewpointF,PressureIn,WindDirection,WindDirectionDegrees,WindSpeedMPH,WindSpeedGustMPH,Humidity,HourlyPrecipIn,Conditions,Clouds,dailyrainin,SoftwareType,DateUTC
2013-01-10 00:00:00,48.3,37.5,29.99,WSW,254,6.0,12.0,66,0.00,,,0.00,VWS V14.01,2013-01-10 08:00:00,
2013-01-10 00:05:00,48.0,38.0,29.99,West,268,10.0,10.0,68,0.00,,,0.00,VWS V14.01,2013-01-10 08:05:00,
2013-01-10 00:10:00,47.8,37.8,29.98,West,264,8.0,14.0,68,0.00,,,0.00,VWS V14.01,2013-01-10 08:10:00,
2013-01-10 00:15:00,47.8,37.8,29.98,SW,236,6.0,15.0,68,0.00,,,0.00,VWS V14.01,2013-01-10 08:15:00,
2013-01-10 00:20:00,47.5,37.8,29.98,WNW,284,5.0,12.0,69,0.00,,,0.00,VWS V14.01,2013-01-10 08:20:00,
2013-01-10 00:25:00,47.4,37.8,29.98,West,264,12.0,14.0,69,0.00,,,0.00,VWS V14.01,2013-01-10 08:25:00,
2013-01-10 00:30:00,47.3,37.7,29.98,WSW,239,7.0,14.0,69,0.00,,,0.00,VWS V14.01,2013-01-10 08:30:00,
2013-01-10 00:35:00,47.2,37.6,29.98,West,269,11.0,11.0,69,0.00,,,0.00,VWS V14.01,2013-01-10 08:35:00,
2013-01-10 00:40:00,47.2,37.6,29.98,WNW,298,10.0,12.0,69,0.00,,,0.00,VWS V14.01,2013-01-10 08:40:00,
2013-01-10 00:45:00,47.1,37.5,29.98,West,280,6.0,12.0,69,0.00,,,0.00,VWS V14.01,2013-01-10 08:45:00,
2013-01-10 00:50:00,47.0,37.4,29.99,West,263,9.0,10.0,69,0.00,,,0.00,VWS V14.01,2013-01-10 08:50:00,
2013-01-10 00:55:00,46.9,37.6,29.99,WNW,291,0.0,12.0,70,0.00,,,0.00,VWS V14.01,2013-01-10 08:55:00,
2013-01-10 01:00:00,46.7,37.5,29.99,West,261,7.0,12.0,70,0.00,,,0.00,VWS V14.01,2013-01-10 09:00:00,
2013-01-10 01:05:00,46.7,37.5,29.99,West,277,1.0,9.0,70,0.00,,,0.00,VWS V14.01,2013-01-10 09:05:00,
2013-01-10 01:10:00,46.5,37.3,29.99,West,259,5.0,9.0,70,0.00,,,0.00,VWS V14.01,2013-01-10 09:10:00,
2013-01-10 01:15:00,46.3,37.4,29.99,West,270,9.0,13.0,71,0.00,,,0.00,VWS V14.01,2013-01-10 09:15:00,
2013-01-10 01:20:00,46.3,37.4,29.99,WNW,289,4.0,10.0,71,0.00,,,0.00,VWS V14.01,2013-01-10 09:20:00,
2013-01-10 01:25:00,46.1,37.6,29.99,WNW,296,10.0,13.0,72,0.00,,,0.00,VWS V14.01,2013-01-10 09:25:00,
2013-01-10 01:30:00,46.1,37.9,29.99,West,267,6.0,13.0,73,0.00,,,0.00,VWS V14.01,2013-01-10 09:30:00,
2013-01-10 01:35:00,46.1,38.3,29.99,West,272,2.0,9.0,74,0.00,,,0.00,VWS V14.01,2013-01-10 09:35:00,
2013-01-10 01:40:00,46.1,38.3,29.99,West,267,2.0,11.0,74,0.00,,,0.00,VWS V14.01,2013-01-10 09:40:00,
2013-01-10 01:45:00,46.0,38.5,29.99,West,268,6.0,11.0,75,0.00,,,0.00,VWS V14.01,2013-01-10 09:45:00,
2013-01-10 01:50:00,46.0,38.9,29.99,WSW,257,9.0,13.0,76,0.00,,,0.00,VWS V14.01,2013-01-10 09:50:00,
2013-01-10 01:55:00,46.0,38.9,29.98,WSW,241,0.0,20.0,76,0.00,,,0.00,VWS V14.01,2013-01-10 09:55:00,
2013-01-10 02:00:00,46.1,39.0,29.98,WSW,250,13.0,20.0,76,0.00,,,0.00,VWS V14.01,2013-01-10 10:00:00,
2013-01-10 02:05:00,46.0,38.9,29.98,West,276,7.0,11.0,76,0.00,,,0.00,VWS V14.01,2013-01-10 10:05:00,
2013-01-10 02:10:00,46.0,38.9,29.99,WSW,241,4.0,19.0,76,0.00,,,0.00,VWS V14.01,2013-01-10 10:10:00,
2013-01-10 02:15:00,46.1,38.6,29.99,WSW,257,7.0,19.0,75,0.00,,,0.00,VWS V14.01,2013-01-10 10:15:00,
2013-01-10 02:20:00,46.1,38.3,29.98,WSW,246,6.0,9.0,74,0.00,,,0.00,VWS V14.01,2013-01-10 10:20:00,
2013-01-10 02:25:00,46.1,38.6,29.99,WSW,252,2.0,14.0,75,0.00,,,0.00,VWS V14.01,2013-01-10 10:25:00,
2013-01-10 02:30:00,46.2,38.7,29.99,WSW,245,8.0,18.0,75,0.00,,,0.00,VWS V14.01,2013-01-10 10:30:00,
2013-01-10 02:35:00,46.3,38.8,29.98,West,264,5.0,8.0,75,0.00,,,0.00,VWS V14.01,2013-01-10 10:35:00,
2013-01-10 02:40:00,46.4,38.9,29.99,West,260,5.0,13.0,75,0.00,,,0.00,VWS V14.01,2013-01-10 10:40:00,
2013-01-10 02:45:00,46.5,39.0,29.99,WSW,250,7.0,16.0,75,0.00,,,0.00,VWS V14.01,2013-01-10 10:45:00,
2013-01-10 02:50:00,46.6,38.8,29.99,SW,236,6.0,9.0,74,0.00,,,0.00,VWS V14.01,2013-01-10 10:50:00,
2013-01-10 02:55:00,46.6,38.8,29.98,West,276,8.0,11.0,74,0.00,,,0.00,VWS V14.01,2013-01-10 10:55:00,
2013-01-10 03:00:00,46.7,38.9,29.98,WNW,282,7.0,12.0,74,0.00,,,0.00,VWS V14.01,2013-01-10 11:00:00,
2013-01-10 03:05:00,46.7,38.9,29.98,West,265,9.0,15.0,74,0.00,,,0.00,VWS V14.01,2013-01-10 11:05:00,
2013-01-10 03:10:00,46.7,38.5,29.98,West,268,5.0,15.0,73,0.00,,,0.00,VWS V14.01,2013-01-10 11:10:00,
2013-01-10 03:15:00,46.7,38.2,29.98,WSW,254,4.0,15.0,72,0.00,,,0.00,VWS V14.01,2013-01-10 11:15:00,
2013-01-10 03:20:00,46.7,37.5,29.98,SW,236,2.0,8.0,70,0.00,,,0.00,VWS V14.01,2013-01-10 11:20:00,
2013-01-10 03:25:00,46.8,37.2,29.98,WNW,286,6.0,15.0,69,0.00,,,0.00,VWS V14.01,2013-01-10 11:25:00,
2013-01-10 03:30:00,46.8,37.2,29.98,WSW,238,6.0,15.0,69,0.00,,,0.00,VWS V14.01,2013-01-10 11:30:00,
2013-01-10 03:45:00,46.8,37.5,29.97,WSW,248,5.0,16.0,70,0.00,,,0.00,VWS V14.01,2013-01-10 11:45:00,
2013-01-10 04:00:00,46.5,38.0,29.96,SW,225,4.0,13.0,72,0.00,,,0.00,VWS V14.01,2013-01-10 12:00:00,
2013-01-10 04:15:00,42.4,31.5,29.97,West,270,8.0,19.0,65,0.00,,,0.00,VWS V14.01,2013-01-10 12:15:00,
2013-01-10 04:30:00,41.6,30.7,29.97,West,270,9.0,21.0,65,0.00,,,0.00,VWS V14.01,2013-01-10 12:30:00,
2013-01-10 04:45:00,41.2,30.0,29.96,West,270,9.0,21.0,64,0.00,,,0.00,VWS V14.01,2013-01-10 12:45:00,
2013-01-10 05:00:00,41.0,29.4,29.97,West,270,10.0,20.0,63,0.00,,,0.00,VWS V14.01,2013-01-10 13:00:00,
2013-01-10 05:15:00,40.4,29.6,29.97,West,270,10.0,19.0,65,0.00,,,0.00,VWS V14.01,2013-01-10 13:15:00,
2013-01-10 05:30:00,40.0,29.2,29.98,West,270,9.0,21.0,65,0.00,,,0.00,VWS V14.01,2013-01-10 13:30:00,
2013-01-10 05:45:00,39.9,28.3,29.99,West,270,8.0,21.0,63,0.00,,,0.00,VWS V14.01,2013-01-10 13:45:00,
2013-01-10 06:00:00,39.8,27.9,29.99,West,270,8.0,21.0,62,0.00,,,0.00,VWS V14.01,2013-01-10 14:00:00,
2013-01-10 06:15:00,39.4,28.2,30.00,West,270,9.0,20.0,64,0.00,,,0.00,VWS V14.01,2013-01-10 14:15:00,
2013-01-10 06:30:00,39.3,27.8,30.00,West,270,8.0,18.0,63,0.00,,,0.00,VWS V14.01,2013-01-10 14:30:00,
2013-01-10 06:45:00,39.1,27.6,30.00,West,270,9.0,20.0,63,0.00,,,0.00,VWS V14.01,2013-01-10 14:45:00,
2013-01-10 07:00:00,38.8,27.7,30.01,West,270,8.0,20.0,64,0.00,,,0.00,VWS V14.01,2013-01-10 15:00:00,
2013-01-10 07:15:00,38.4,27.7,30.02,West,270,7.0,14.0,65,0.00,,,0.00,VWS V14.01,2013-01-10 15:15:00,
2013-01-10 07:30:00,38.0,27.7,30.02,West,270,7.0,15.0,66,0.00,,,0.00,VWS V14.01,2013-01-10 15:30:00,
2013-01-10 07:45:00,37.8,27.5,30.02,West,270,7.0,19.0,66,0.00,,,0.00,VWS V14.01,2013-01-10 15:45:00,
2013-01-10 08:00:00,37.3,27.0,30.02,West,270,7.0,16.0,66,0.00,,,0.00,VWS V14.01,2013-01-10 16:00:00,
2013-01-10 08:15:00,37.3,26.6,30.02,West,270,7.0,20.0,65,0.00,,,0.00,VWS V14.01,2013-01-10 16:15:00,
2013-01-10 08:30:00,37.9,26.8,30.01,West,270,8.0,19.0,64,0.00,,,0.00,VWS V14.01,2013-01-10 16:30:00,
2013-01-10 08:45:00,39.0,25.9,30.02,West,270,9.0,22.0,59,0.00,,,0.00,VWS V14.01,2013-01-10 16:45:00,
2013-01-10 09:00:00,39.7,25.3,30.02,West,270,9.0,19.0,56,0.00,,,0.00,VWS V14.01,2013-01-10 17:00:00,
2013-01-10 09:15:00,39.9,24.6,30.02,West,270,10.0,22.0,54,0.00,,,0.00,VWS V14.01,2013-01-10 17:15:00,
2013-01-10 09:30:00,40.2,24.9,30.03,West,270,11.0,22.0,54,0.00,,,0.00,VWS V14.01,2013-01-10 17:30:00,
2013-01-10 09:45:00,40.9,24.2,30.03,West,270,9.0,19.0,51,0.00,,,0.00,VWS V14.01,2013-01-10 17:45:00,
2013-01-10 10:00:00,41.3,25.0,30.03,West,270,9.0,18.0,52,0.00,,,0.00,VWS V14.01,2013-01-10 18:00:00,
2013-01-10 10:15:00,41.7,24.5,30.03,West,270,9.0,16.0,50,0.00,,,0.00,VWS V14.01,2013-01-10 18:15:00,
2013-01-10 10:30:00,41.8,24.1,30.03,West,270,9.0,20.0,49,0.00,,,0.00,VWS V14.01,2013-01-10 18:30:00,
2013-01-10 10:45:00,42.8,23.5,30.03,West,270,8.0,19.0,46,0.00,,,0.00,VWS V14.01,2013-01-10 18:45:00,
2013-01-10 11:00:00,42.7,23.9,30.02,West,270,9.0,25.0,47,0.00,,,0.00,VWS V14.01,2013-01-10 19:00:00,
2013-01-10 11:15:00,43.0,22.0,30.02,West,270,10.0,20.0,43,0.00,,,0.00,VWS V14.01,2013-01-10 19:15:00,
2013-01-10 11:30:00,43.2,22.2,30.01,West,270,9.0,22.0,43,0.00,,,0.00,VWS V14.01,2013-01-10 19:30:00,
2013-01-10 11:45:00,43.0,22.0,30.00,WNW,292,10.0,25.0,43,0.00,,,0.00,VWS V14.01,2013-01-10 19:45:00,
2013-01-10 12:00:00,43.1,23.7,29.99,West,270,9.0,24.0,46,0.00,,,0.00,VWS V14.01,2013-01-10 20:00:00,
2013-01-10 12:15:00,43.3,22.9,29.98,WNW,292,10.0,22.0,44,0.00,,,0.00,VWS V14.01,2013-01-10 20:15:00,
2013-01-10 12:30:00,43.3,22.3,29.97,WNW,292,10.0,24.0,43,0.00,,,0.00,VWS V14.01,2013-01-10 20:30:00,
2013-01-10 12:45:00,43.7,23.2,29.99,West,270,9.0,19.0,44,0.00,,,0.00,VWS V14.01,2013-01-10 20:45:00,
2013-01-10 13:00:00,43.7,21.6,30.00,West,270,10.0,21.0,41,0.00,,,0.00,VWS V14.01,2013-01-10 21:00:00,
2013-01-10 13:15:00,43.8,20.5,30.00,WNW,292,10.0,21.0,39,0.00,,,0.00,VWS V14.01,2013-01-10 21:15:00,
2013-01-10 13:30:00,43.3,20.0,30.00,WNW,292,10.0,25.0,39,0.00,,,0.00,VWS V14.01,2013-01-10 21:30:00,
2013-01-10 13:45:00,43.8,21.1,30.00,WNW,292,8.0,18.0,40,0.00,,,0.00,VWS V14.01,2013-01-10 21:45:00,
2013-01-10 14:00:00,43.4,22.4,30.00,WNW,292,9.0,21.0,43,0.00,,,0.00,VWS V14.01,2013-01-10 22:00:00,
2013-01-10 14:15:00,42.2,22.4,30.01,WNW,292,9.0,19.0,45,0.00,,,0.00,VWS V14.01,2013-01-10 22:15:00,
2013-01-10 14:30:00,42.6,24.3,30.01,WNW,292,8.0,21.0,48,0.00,,,0.00,VWS V14.01,2013-01-10 22:30:00,
2013-01-10 14:45:00,42.2,22.4,30.02,WNW,292,9.0,23.0,45,0.00,,,0.00,VWS V14.01,2013-01-10 22:45:00,
2013-01-10 15:00:00,41.7,24.0,30.01,West,270,8.0,22.0,49,0.00,,,0.00,VWS V14.01,2013-01-10 23:00:00,
2013-01-10 15:15:00,42.0,22.7,30.01,West,270,8.0,16.0,46,0.00,,,0.00,VWS V14.01,2013-01-10 23:15:00,
2013-01-10 15:30:00,42.0,23.2,30.01,West,270,7.0,18.0,47,0.00,,,0.00,VWS V14.01,2013-01-10 23:30:00,
2013-01-10 15:45:00,41.5,22.8,30.02,WNW,292,8.0,16.0,47,0.00,,,0.00,VWS V14.01,2013-01-10 23:45:00,
2013-01-10 16:00:00,40.6,23.4,30.02,West,270,8.0,15.0,50,0.00,,,0.00,VWS V14.01,2013-01-11 00:00:00,
2013-01-10 16:15:00,39.2,24.0,30.02,West,270,7.0,16.0,54,0.00,,,0.00,VWS V14.01,2013-01-11 00:15:00,
2013-01-10 16:30:00,38.4,23.7,30.02,West,270,7.0,18.0,55,0.00,,,0.00,VWS V14.01,2013-01-11 00:30:00,
2013-01-10 16:45:00,38.0,23.7,30.02,West,270,6.0,13.0,56,0.00,,,0.00,VWS V14.01,2013-01-11 00:45:00,
2013-01-10 17:15:00,36.9,23.1,30.04,West,270,6.0,20.0,57,0.00,,,0.00,VWS V14.01,2013-01-11 01:15:00,
2013-01-10 17:30:00,36.6,23.6,30.04,West,270,4.0,12.0,59,0.00,,,0.00,VWS V14.01,2013-01-11 01:30:00,
2013-01-10 17:45:00,35.7,24.4,30.05,West,270,5.0,12.0,63,0.00,,,0.00,VWS V14.01,2013-01-11 01:45:00,
2013-01-10 18:00:00,36.0,25.8,30.05,WNW,292,6.0,18.0,66,0.00,,,0.00,VWS V14.01,2013-01-11 02:00:00,
2013-01-10 18:15:00,35.5,26.0,30.06,West,270,5.0,14.0,68,0.00,,,0.00,VWS V14.01,2013-01-11 02:15:00,
2013-01-10 18:30:00,34.3,27.2,30.06,West,270,6.0,14.0,75,0.00,,,0.00,VWS V14.01,2013-01-11 02:30:00,
2013-01-10 18:45:00,33.7,27.3,30.06,WSW,248,4.0,13.0,77,0.00,,,0.00,VWS V14.01,2013-01-11 02:45:00,
2013-01-10 19:00:00,33.9,27.1,30.04,West,270,4.0,13.0,76,0.00,,,0.00,VWS V14.01,2013-01-11 03:00:00,
2013-01-10 19:15:00,34.4,25.0,30.04,West,270,5.0,14.0,68,0.00,,,0.00,VWS V14.01,2013-01-11 03:15:00,
2013-01-10 19:30:00,34.7,24.9,30.05,West,270,6.0,18.0,67,0.00,,,0.00,VWS V14.01,2013-01-11 03:30:00,
2013-01-10 19:45:00,33.8,28.6,30.07,West,270,7.0,16.0,81,0.00,,,0.00,VWS V14.01,2013-01-11 03:45:00,
2013-01-10 20:00:00,33.3,26.9,30.08,West,270,6.0,14.0,77,0.00,,,0.00,VWS V14.01,2013-01-11 04:00:00,
2013-01-10 20:15:00,34.1,24.3,30.09,West,270,5.0,11.0,67,0.00,,,0.00,VWS V14.01,2013-01-11 04:15:00,
2013-01-10 20:30:00,34.4,23.1,30.10,WSW,248,3.0,10.0,63,0.00,,,0.00,VWS V14.01,2013-01-11 04:30:00,
2013-01-10 20:45:00,36.2,21.6,30.10,West,270,7.0,20.0,55,0.00,,,0.00,VWS V14.01,2013-01-11 04:45:00,
2013-01-10 21:14:00,36.2,21.6,30.10,West,270,7.0,20.0,55,0.00,,,0.00,VWS V14.01,2013-01-11 05:14:00,
2013-01-10 21:19:00,36.9,19.1,30.11,West,281,1.0,3.0,48,0.00,,,0.00,VWS V14.01,2013-01-11 05:19:00,
2013-01-10 21:24:00,37.1,18.8,30.12,West,275,6.0,15.0,47,0.00,,,0.00,VWS V14.01,2013-01-11 05:24:00,
2013-01-10 21:29:00,37.4,18.5,30.12,WNW,289,5.0,16.0,46,0.00,,,0.00,VWS V14.01,2013-01-11 05:29:00,
2013-01-10 21:34:00,37.6,19.2,30.12,NW,323,4.0,7.0,47,0.00,,,0.00,VWS V14.01,2013-01-11 05:34:00,
2013-01-10 21:39:00,37.5,19.1,30.13,NW,326,2.0,9.0,47,0.00,,,0.00,VWS V14.01,2013-01-11 05:39:00,
2013-01-10 21:44:00,37.7,18.8,30.13,NW,322,4.0,11.0,46,0.00,,,0.00,VWS V14.01,2013-01-11 05:44:00,
2013-01-10 21:49:00,37.8,19.4,30.13,WNW,303,2.0,3.0,47,0.00,,,0.00,VWS V14.01,2013-01-11 05:49:00,
2013-01-10 21:54:00,37.6,19.2,30.14,NW,306,8.0,13.0,47,0.00,,,0.00,VWS V14.01,2013-01-11 05:54:00,
2013-01-10 21:59:00,37.7,18.3,30.14,NW,311,7.0,15.0,45,0.00,,,0.00,VWS V14.01,2013-01-11 05:59:00,
2013-01-10 22:04:00,37.9,18.5,30.14,West,271,8.0,8.0,45,0.00,,,0.00,VWS V14.01,2013-01-11 06:04:00,
2013-01-10 22:09:00,37.8,18.9,30.14,WNW,300,6.0,12.0,46,0.00,,,0.00,VWS V14.01,2013-01-11 06:09:00,
2013-01-10 22:14:00,37.6,20.2,30.14,WNW,290,1.0,13.0,49,0.00,,,0.00,VWS V14.01,2013-01-11 06:14:00,
2013-01-10 22:19:00,37.3,19.9,30.14,WNW,297,14.0,14.0,49,0.00,,,0.00,VWS V14.01,2013-01-11 06:19:00,
2013-01-10 22:24:00,37.3,19.9,30.14,WNW,288,3.0,14.0,49,0.00,,,0.00,VWS V14.01,2013-01-11 06:24:00,
2013-01-10 22:29:00,37.3,19.4,30.14,West,275,10.0,16.0,48,0.00,,,0.00,VWS V14.01,2013-01-11 06:29:00,
2013-01-10 22:34:00,37.0,19.6,30.15,WSW,254,9.0,10.0,49,0.00,,,0.00,VWS V14.01,2013-01-11 06:34:00,
2013-01-10 22:39:00,36.8,19.5,30.14,WNW,296,2.0,12.0,49,0.00,,,0.00,VWS V14.01,2013-01-11 06:39:00,
2013-01-10 22:44:00,37.0,19.6,30.15,WNW,283,8.0,23.0,49,0.00,,,0.00,VWS V14.01,2013-01-11 06:44:00,
2013-01-10 22:49:00,37.0,20.1,30.15,NW,304,16.0,16.0,50,0.00,,,0.00,VWS V14.01,2013-01-11 06:49:00,
2013-01-10 22:54:00,37.0,19.6,30.15,WNW,284,4.0,16.0,49,0.00,,,0.00,VWS V14.01,2013-01-11 06:54:00,
2013-01-10 22:59:00,36.9,19.1,30.15,West,267,8.0,16.0,48,0.00,,,0.00,VWS V14.01,2013-01-11 06:59:00,
2013-01-10 23:04:00,37.0,18.7,30.16,WNW,284,4.0,4.0,47,0.00,,,0.00,VWS V14.01,2013-01-11 07:04:00,
2013-01-10 23:09:00,37.1,18.8,30.16,NW,309,3.0,11.0,47,0.00,,,0.00,VWS V14.01,2013-01-11 07:09:00,
2013-01-10 23:14:00,37.3,19.4,30.16,NW,323,9.0,12.0,48,0.00,,,0.00,VWS V14.01,2013-01-11 07:14:00,
2013-01-10 23:19:00,37.5,19.1,30.16,NNW,341,2.0,4.0,47,0.00,,,0.00,VWS V14.01,2013-01-11 07:19:00,
2013-01-10 23:24:00,37.4,19.5,30.16,NNW,331,4.0,11.0,48,0.00,,,0.00,VWS V14.01,2013-01-11 07:24:00,
2013-01-10 23:29:00,37.4,19.5,30.16,WNW,301,4.0,14.0,48,0.00,,,0.00,VWS V14.01,2013-01-11 07:29:00,
2013-01-10 23:34:00,37.5,20.1,30.17,WNW,289,10.0,10.0,49,0.00,,,0.00,VWS V14.01,2013-01-11 07:34:00,
2013-01-10 23:39:00,37.2,20.3,30.18,WNW,298,5.0,19.0,50,0.00,,,0.00,VWS V14.01,2013-01-11 07:39:00,
2013-01-10 23:44:00,36.9,20.0,30.18,West,275,0.0,19.0,50,0.00,,,0.00,VWS V14.01,2013-01-11 07:44:00,
2013-01-10 23:49:00,36.5,20.1,30.17,West,261,1.0,1.0,51,0.00,,,0.00,VWS V14.01,2013-01-11 07:49:00,
2013-01-10 23:54:00,36.0,19.6,30.17,West,275,4.0,7.0,51,0.00,,,0.00,VWS V14.01,2013-01-11 07:54:00,
2013-01-10 23:59:00,35.6,19.3,30.17,WNW,287,1.0,7.0,51,0.00,,,0.00,VWS V14.01,2013-01-11 07:59:00,